Hourly Data Report for October 10, 2015

All times are specified in Local Standard Time (LST). Add 1 hour to adjust for Daylight Saving Time where and when it is observed.

CHARLOTTETOWN A
PRINCE EDWARD ISLAND

46°17'21.000" N
63°07'09.000" W
48.50 m
8300301
71706
YYG

Download Data

Hourly Data (October 2015)
Hourly Data Report for October 10, 2015
Temp Definition
°C
Dew Point Temp Definition
°C
Rel Hum Definition
%
Wind Dir Definition
10's deg

Wind Spd Definition
km/h
Visibility Definition
km
Stn Press Definition
kPa
Hmdx Definition


Wind Chill Definition


Weather Definition


TIME
00:00 Legend Double Dagger 9.7 9.1 96 16 22 6.4 99.83     Rain Showers,Fog
01:00 Legend Double Dagger 10.5 9.9 96 17 28 6.4 99.65     Moderate Rain Showers,Fog
02:00 Legend Double Dagger 11.3 10.7 96 18 23 6.4 99.46     Moderate Rain Showers,Fog
03:00 Legend Double Dagger 11.6 11.0 96 19 21 6.4 99.30     Moderate Rain Showers,Fog
04:00 Legend Double Dagger 12.0 11.5 97 23 23 4.8 99.23     Rain Showers,Fog
05:00 Legend Double Dagger 11.0 10.2 95 27 21 6.4 99.26     Rain Showers,Fog
06:00 Legend Double Dagger 8.4 6.5 88 29 31 24.1 99.44     LegendNANA
07:00 Legend Double Dagger 6.8 3.6 80 28 25 24.1 99.65     LegendNANA
08:00 Legend Double Dagger 6.4 2.9 78 28 30 24.1 99.84     Mostly Cloudy
09:00 Legend Double Dagger 6.9 2.4 73 29 30 24.1 99.92     LegendNANA
10:00 Legend Double Dagger 7.0 1.9 70 29 33 24.1 99.98     LegendNANA
11:00 Legend Double Dagger 7.7 0.0 58 31 41 24.1 100.08     Mostly Cloudy
12:00 Legend Double Dagger 8.0 -0.7 54 29 35 24.1 100.25     LegendNANA
13:00 Legend Double Dagger 7.0 -1.4 55 31 31 24.1 100.37     LegendNANA
14:00 Legend Double Dagger 7.6 -3.3 46 28 30 24.1 100.39     Mainly Clear
15:00 Legend Double Dagger 7.7 -3.2 46 30 23 24.1 100.45     LegendNANA
16:00 Legend Double Dagger 7.1 -4.6 43 30 22 24.1 100.50     LegendNANA
17:00 Legend Double Dagger 6.3 -4.5 46 30 16 24.1 100.52     Mainly Clear
18:00 Legend Double Dagger 4.9 -4.9 49 28 14 24.1 100.61     LegendNANA
19:00 Legend Double Dagger 3.3 -4.7 56 26 9 24.1 100.71     LegendNANA
20:00 Legend Double Dagger 2.9 -4.3 59 26 9 24.1 100.77     Mainly Clear
21:00 Legend Double Dagger 2.8 -4.4 59 25 8 24.1 100.81     LegendNANA
22:00 Legend Double Dagger 3.0 -4.2 59 28 10 24.1 100.77     LegendNANA
23:00 Legend Double Dagger 2.2 -3.7 65 26 9 24.1 100.81     Mainly Clear

Notes on Data Quality.

Legend

  • E = Estimated
  • M = Missing
  • NA = Not Available
  • ‡ = Partner data that is not subject to review by the National Climate Archives
Date modified: